Weather in Balagansk

Russia / Irkutsk Oblast     54°00′22″N   103°03′27″E
temp.,
°C
wind,
m/s
gust,
m/s
humid.,
%
clouds,
%
prec.,
mm/h
press.,
hPa
HPBL,
m
17 september, fri
fri1723:00+7ne119159 0.0 101634
02:00+7ne2292100 0.1 101665
05:00+7ne2391100 0.1 1016102
08:00+8ne238984 0.2 1017145
11:00+9ese2481100 0.0 1016345
14:00+12ese2370100 0.0 1014581
17:00+14se236592 0.0 1013493
20:00+10ene228056 0.0 101417
18 september, sat
sat1823:00+8e22835 0.0 101416
02:00+7ese228528 0.0 101432
05:00+6ese23897 0.0 101341
08:00+7ese27835 0.0 1013252
11:00+12sse69585 0.0 1012550
14:00+17sse58456 0.0 1009732
17:00+18sse47445 0.0 1008717
20:00+13se22659 0.0 100911
19 september, sun
sun1923:00+11se227388 0.0 101013
02:00+9ene11825 0.0 101110
05:00+8n1184100 0.0 101211
08:00+10nw118098 0.0 101339
11:00+14s226031 0.0 1012473
14:00+17se33515 0.0 1011712
17:00+17sse23515 0.0 1009447
20:00+12s11685 0.0 100910
20 september, mon
mon2023:00+11ese117461 0.0 100810
02:00+10se228574 0.0 100619
05:00+9se359195 0.0 1004109
08:00+10se3118865 0.0 1003311
11:00+15ssw246397 0.0 1002626
14:00+18sse1252100 0.0 1000865
17:00+18nnw125099 0.0 999896
20:00+10nw111682100 0.3 10061025
21 september, tue
tue2123:00+9nw4986100 3.6 10101017
02:00+7nw5108490 3.8 1012675
05:00+5nw488520 0.0 1014297
08:00+5n248892 0.0 1014243
11:00+8n3469100 0.0 1014821
14:00+8n2371100 1.1 1014823
17:00+8n3466100 0.4 1014982
20:00+6nnw127188 0.4 101670